Regional Weather Roundup
Issued by NWS

Home | Current Version | Previous Version | Text Only | Print | Product List | Glossary On
Versions: 1 2 3 4 5 6 7 8 9 10 11 12 13 14 15 16 17 18 19 20 21 22 23 24 25 26 27 28 29 30 31 32 33 34 35 36 37 38 39 40 41 42 43 44 45 46 47 48 49 50
023
ASUS43 KLMK 252102
RWRKY
KENTUCKY REGIONAL WEATHER ROUNDUP
NATIONAL WEATHER SERVICE LOUISVILLE KY
500 PM EDT MON SEP 25 2017

NOTE "FAIR" INDICATES FEW OR NO CLOUDS BELOW 12,000 FEET
WITH NO SIGNIFICANT WEATHER AND/OR OBSTRUCTIONS TO VISIBILITY.

KYZ001>023-026-027-061>063-070>075-252200-
WESTERN AND SOUTH CENTRAL KENTUCKY

CITY           SKY/WX    TMP DP  RH WIND       PRES   REMARKS
PADUCAH        MOSUNNY   90  60  36 VRB3      29.92F
HENDERSON      MOSUNNY   90  66  45 E6        29.94F HX  92
OWENSBORO      PTSUNNY   89  67  47 VRB6      29.95F HX  92
HOPKINSVILLE   SUNNY     88  61  40 S3        29.95F
BOWLING GREEN  SUNNY     88  64  44 SE5       29.96F
GLASGOW        NOT AVBL
$$

KYZ024-025-028>034-038-045-046-053-252200-
NORTH CENTRAL KENTUCKY

CITY           SKY/WX    TMP DP  RH WIND       PRES   REMARKS
LOUISVILLE/SDF CLOUDY    89  63  41 E5        29.96F HX  90
LOUISVILLE/LOU CLOUDY    87  67  51 E7        29.97F HX  90
FORT KNOX      MOSUNNY   85  67  54 VRB3      29.96F
$$

KYZ035>037-039>044-047>052-055>060-089>105-252200-
NORTHEAST KENTUCKY

CITY           SKY/WX    TMP DP  RH WIND       PRES   REMARKS
LEXINGTON      CLOUDY    84  66  54 N5        30.01F
COVINGTON      PTSUNNY   85  63  47 S5        29.99F
FRANKFORT      PTSUNNY   86  63  45 E6        29.98F
$$

KYZ054-064>069-076>088-106>120-252200-
SOUTHEAST KENTUCKY

CITY           SKY/WX    TMP DP  RH WIND       PRES   REMARKS
JACKSON        SUNNY     84  63  49 CALM      30.03F
LONDON         PTSUNNY   82  60  47 CALM      30.02F
SOMERSET       NOT AVBL
MIDDLESBORO    MOSUNNY   82  65  56 W5        30.01F
MONTICELLO     CLEAR     86  60  41 N13       30.00F
$$





USA.gov is the U.S. government's official web portal to all federal, state and local government web resources and services.